GW5121 Weather Reports


time (UTC)temp
F
wind
direction
speed
knots
gust
knots
rain 1hr
in
rain 24hr
in
rain mn
in
humidity
%
barometer
mb
20260505034605 54 237 0.0 0.0 0.00 0.00 0.00 88 1010.8
20260505034102 54 237 0.0 0.0 0.00 0.00 0.00 88 1010.9
20260505033559 53 237 0.0 0.0 0.00 0.00 0.00 88 1011.0
20260505033058 53 237 0.0 0.0 0.00 0.00 0.00 87 1011.0
20260505032555 54 237 0.0 0.0 0.00 0.00 0.00 86 1011.0
20260505032051 55 237 0.0 0.0 0.00 0.00 0.00 85 1011.0
20260505031549 55 237 0.0 0.0 0.00 0.00 0.00 84 1010.9
20260505031045 56 237 0.0 0.0 0.00 0.00 0.00 84 1010.9
20260505030542 55 237 0.0 0.0 0.00 0.00 0.00 84 1010.9
20260505030038 55 237 0.0 0.0 0.00 0.00 0.00 85 1011.0
20260505025533 55 237 0.0 0.0 0.00 0.00 0.00 85 1011.1
20260505025033 55 237 0.0 0.0 0.00 0.00 0.00 84 1010.9
20260505024529 55 237 0.0 0.0 0.00 0.00 0.00 83 1010.8
20260505024026 56 237 0.0 0.0 0.00 0.00 0.00 82 1011.0
20260505023523 56 237 0.0 0.0 0.00 0.00 0.00 80 1011.2
20260505023021 57 237 0.0 0.0 0.00 0.00 0.00 80 1011.1
20260505022519 57 237 0.0 0.0 0.00 0.00 0.00 78 1010.9
20260505022015 58 237 0.0 0.0 0.00 0.00 0.00 76 1010.9
20260505021512 58 237 0.0 0.0 0.00 0.00 0.00 77 1010.8
20260505021008 58 237 0.0 1.7 0.00 0.00 0.00 77 1010.9
20260505020503 58 237 0.0 0.9 0.00 0.00 0.00 76 1010.7
20260505020000 59 237 0.0 0.9 0.00 0.00 0.00 75 1010.8
20260505015457 61 237 0.9 1.7 0.00 0.00 0.00 72 1010.9
20260505014954 60 237 0.0 0.9 0.00 0.00 0.00 70 1010.8
20260505014451 60 237 0.9 1.7 0.00 0.00 0.00 72 1010.9
20260505013948 60 237 0.0 0.9 0.00 0.00 0.00 73 1010.9
20260505013445 60 237 0.9 1.7 0.00 0.00 0.00 72 1010.7
20260505012943 60 237 0.0 0.0 0.00 0.00 0.00 72 1010.9
20260505012441 60 236 0.0 0.0 0.00 0.00 0.00 71 1010.8
20260505011937 60 236 0.0 0.9 0.00 0.00 0.00 70 1010.7
20260505011433 59 237 0.0 0.0 0.00 0.00 0.00 73 1010.7
20260505010930 60 237 0.0 0.0 0.00 0.00 0.00 74 1010.7
20260505010426 60 237 0.0 0.0 0.00 0.00 0.00 73 1010.7
20260505005922 60 237 0.0 0.0 0.00 0.00 0.00 72 1011.0
20260505005419 61 237 0.0 0.0 0.00 0.00 0.00 70 1010.8
20260505004916 61 236 0.0 0.0 0.00 0.00 0.00 69 1011.0
20260505004413 62 236 0.0 0.0 0.00 0.00 0.00 68 1010.8
20260505003910 62 237 0.0 0.0 0.00 0.00 0.00 66 1010.8
20260505003407 62 236 0.0 0.0 0.00 0.00 0.00 66 1010.7
20260505002903 62 237 0.0 0.0 0.00 0.00 0.00 68 1010.9
20260505002400 63 236 0.0 0.0 0.00 0.00 0.00 68 1010.8
20260505001858 63 236 0.0 0.0 0.00 0.00 0.00 67 1010.9
20260505001355 64 236 0.0 0.0 0.00 0.00 0.00 63 1010.8
20260505000853 65 236 0.0 0.0 0.00 0.00 0.00 61 1010.8
20260505000351 65 236 0.0 0.0 0.00 0.00 0.00 60 1010.8
20260504235846 66 236 0.0 0.0 0.00 0.00 0.00 58 1011.0
20260504235344 66 237 0.0 0.0 0.00 0.00 0.00 57 1011.0
20260504234840 67 236 0.0 0.0 0.00 0.00 0.00 55 1010.8
20260504234338 68 237 0.0 0.9 0.00 0.00 0.00 54 1011.1
20260504233834 69 236 0.9 1.7 0.00 0.00 0.00 53 1011.0
20260504233330 69 236 1.7 1.7 0.00 0.00 0.00 52 1011.0
20260504232827 70 236 0.0 0.9 0.00 0.00 0.00 51 1010.9
20260504232324 70 236 0.9 2.6 0.00 0.00 0.00 50 1011.0
20260504231821 70 228 1.7 5.2 0.00 0.00 0.00 49 1011.1
20260504231317 70 226 0.9 3.5 0.00 0.00 0.00 50 1011.0
20260504230813 70 259 3.5 5.2 0.00 0.00 0.00 49 1011.2
20260504230311 70 200 3.5 5.2 0.00 0.00 0.00 48 1011.1
20260504225810 71 223 1.7 6.1 0.00 0.00 0.00 48 1011.1
20260504225306 71 227 2.6 6.1 0.00 0.00 0.00 49 1011.0
20260504224803 71 263 1.7 2.6 0.00 0.00 0.00 51 1011.1
20260504224300 71 262 1.7 7.0 0.00 0.00 0.00 49 1011.1
20260504223757 71 195 2.6 3.5 0.00 0.00 0.00 48 1011.2
20260504223252 71 202 1.7 3.5 0.00 0.00 0.00 49 1011.2
20260504222749 71 215 3.5 5.2 0.00 0.00 0.00 49 1011.0
20260504222246 71 243 2.6 7.0 0.00 0.00 0.00 47 1011.2
20260504221744 71 247 1.7 2.6 0.00 0.00 0.00 48 1011.1
20260504221241 71 202 1.7 2.6 0.00 0.00 0.00 48 1011.1
20260504220737 71 240 3.5 3.5 0.00 0.00 0.00 48 1011.2
20260504220235 71 247 0.9 3.5 0.00 0.00 0.00 50 1011.2
20260504215732 70 260 3.5 7.8 0.00 0.00 0.00 50 1011.2
20260504215228 70 223 2.6 6.1 0.00 0.00 0.00 48 1011.3
20260504214724 71 239 3.5 5.2 0.00 0.00 0.00 48 1011.4
20260504214221 70 242 3.5 9.6 0.00 0.00 0.00 51 1011.3
20260504213718 70 261 4.3 7.0 0.00 0.00 0.00 49 1011.3
20260504213214 71 258 3.5 6.1 0.00 0.00 0.00 48 1011.0
20260504212711 71 223 5.2 7.8 0.00 0.00 0.00 48 1010.8
20260504212208 72 169 4.3 8.7 0.00 0.00 0.00 47 1010.8
20260504211705 72 236 4.3 8.7 0.00 0.00 0.00 46 1010.8
20260504211201 72 203 2.6 14.8 0.00 0.00 0.00 47 1010.8
20260504210659 72 199 4.3 6.1 0.00 0.00 0.00 47 1010.8
20260504210155 70 211 4.3 6.1 0.00 0.00 0.00 48 1011.0
20260504205653 71 255 3.5 7.0 0.00 0.00 0.00 48 1011.0
20260504205150 71 277 3.5 7.0 0.00 0.00 0.00 49 1011.1
20260504204648 71 215 4.3 8.7 0.00 0.00 0.00 46 1011.0
20260504204147 71 230 3.5 6.1 0.00 0.00 0.00 47 1010.9
20260504203645 72 266 5.2 11.3 0.00 0.00 0.00 47 1011.0
20260504203143 72 240 4.3 6.1 0.00 0.00 0.00 48 1011.2
20260504202642 71 237 4.3 7.0 0.00 0.00 0.00 48 1011.1
20260504202140 70 222 2.6 6.1 0.00 0.00 0.00 48 1011.2
20260504201636 70 168 2.6 6.1 0.00 0.00 0.00 47 1011.1
20260504201134 70 271 2.6 5.2 0.00 0.00 0.00 48 1011.1
20260504200631 71 254 3.5 5.2 0.00 0.00 0.00 48 1011.1
20260504200128 71 277 3.5 7.8 0.00 0.00 0.00 46 1011.3
20260504195623 72 243 6.1 8.7 0.00 0.00 0.00 45 1011.2
20260504195120 71 212 4.3 7.0 0.00 0.00 0.00 47 1011.1
20260504194617 72 207 4.3 9.6 0.00 0.00 0.00 47 1011.3
20260504194112 72 257 3.5 7.8 0.00 0.00 0.00 48 1011.3
20260504193609 71 251 3.5 7.0 0.00 0.00 0.00 49 1011.4
20260504193108 71 227 1.7 6.1 0.00 0.00 0.00 49 1011.6
20260504192606 70 256 5.2 7.8 0.00 0.00 0.00 50 1011.6
20260504192103 70 240 6.1 8.7 0.00 0.00 0.00 47 1011.6
20260504191601 70 244 7.0 9.6 0.00 0.00 0.00 47 1011.5
20260504191057 71 269 4.3 6.1 0.00 0.00 0.00 48 1011.5
20260504190554 71 270 3.5 7.8 0.00 0.00 0.00 48 1011.4
20260504190050 72 269 3.5 12.2 0.00 0.00 0.00 46 1011.2
20260504185547 71 145 7.8 13.0 0.00 0.00 0.00 49 1011.4
20260504185044 72 251 4.3 7.0 0.00 0.00 0.00 48 1011.5
20260504184539 71 275 5.2 6.1 0.00 0.00 0.00 47 1011.6
20260504184035 72 53 3.5 11.3 0.00 0.00 0.00 46 1011.7
20260504183532 71 268 5.2 7.8 0.00 0.00 0.00 48 1011.6
20260504183030 71 246 5.2 7.8 0.00 0.00 0.00 50 1011.8
20260504182526 70 238 3.5 11.3 0.00 0.00 0.00 49 1011.9
20260504182024 71 251 3.5 8.7 0.00 0.00 0.00 51 1011.8
20260504181521 71 223 2.6 7.0 0.00 0.00 0.00 48 1012.0
20260504181020 70 152 7.8 15.6 0.00 0.00 0.00 47 1012.0
20260504180518 70 228 6.1 13.9 0.00 0.00 0.00 49 1012.2
20260504180016 70 257 3.5 7.0 0.00 0.00 0.00 49 1012.0
20260504175513 71 264 4.3 7.0 0.00 0.00 0.00 50 1012.6
20260504175010 69 222 7.0 8.7 0.00 0.00 0.00 49 1012.4
20260504174508 69 261 4.3 9.6 0.00 0.00 0.00 53 1012.5
20260504174004 69 223 3.5 8.7 0.00 0.00 0.00 53 1012.6
20260504173501 68 283 4.3 6.1 0.00 0.00 0.00 53 1012.7
20260504172959 67 183 5.2 11.3 0.00 0.00 0.00 54 1012.9
20260504172454 67 192 7.8 12.2 0.00 0.00 0.00 52 1013.0
20260504171951 68 249 5.2 7.8 0.00 0.00 0.00 51 1013.1
20260504171448 67 190 4.3 13.0 0.00 0.00 0.00 55 1013.2
20260504170945 67 203 6.1 11.3 0.00 0.00 0.00 54 1013.5
20260504170441 66 227 5.2 13.9 0.00 0.00 0.00 50 1013.1
20260504160401 63 263 2.6 3.5 0.00 0.00 0.00 59 1014.7
20260504150825 62 254 4.3 6.1 0.00 0.00 0.00 55 1015.0
20260504150322 63 205 0.9 3.5 0.00 0.00 0.00 58 1014.8
20260504141252 62 242 4.3 12.2 0.00 0.00 0.00 53 1014.8
20260504140748 62 233 6.1 11.3 0.00 0.00 0.00 52 1014.8
20260504140244 62 245 5.2 7.8 0.00 0.00 0.00 52 1014.9
20260504130713 60 189 8.7 9.6 0.00 0.00 0.00 54 1014.7
20260504130208 59 227 2.6 5.2 0.00 0.00 0.00 55 1014.6
20260504120132 52 207 1.7 2.6 0.00 0.00 0.00 69 1014.6
20260504110600 49 207 1.7 1.7 0.00 0.00 0.00 76 1014.8
20260504100522 48 203 0.9 1.7 0.00 0.00 0.00 80 1014.9
20260504081915 48 175 1.7 2.6 0.00 0.00 0.00 79 1015.6
20260504081412 48 197 0.0 0.0 0.00 0.00 0.00 80 1015.5
20260504080908 48 197 0.0 0.0 0.00 0.00 0.00 79 1015.5
20260504080405 48 197 0.0 0.0 0.00 0.00 0.00 78 1015.4
20260504070332 50 197 0.0 1.7 0.00 0.00 0.00 72 1016.0
20260504050721 46 284 0.0 0.0 0.00 0.00 0.00 73 1016.3
20260504050218 46 284 0.0 0.0 0.00 0.00 0.00 73 1016.3
20260504045715 46 284 0.0 0.0 0.00 0.00 0.00 72 1016.1
20260504045215 46 284 0.9 0.9 0.00 0.00 0.00 73 1016.4
20260504044713 46 284 0.0 0.0 0.00 0.00 0.00 73 1016.4
20260504044210 46 284 0.0 0.0 0.00 0.00 0.00 73 1016.5
20260504043707 46 284 0.0 0.0 0.00 0.00 0.00 73 1016.6
20260504043204 46 284 0.0 0.9 0.00 0.00 0.00 73 1016.3
20260504042701 46 284 0.0 0.0 0.00 0.00 0.00 72 1016.4
20260504042158 46 284 0.0 0.9 0.00 0.00 0.00 72 1016.4
20260504041654 46 284 0.0 0.0 0.00 0.00 0.00 73 1016.3
20260504041150 46 284 0.0 0.0 0.00 0.00 0.00 74 1016.3
20260504040647 46 284 0.0 0.0 0.00 0.00 0.00 72 1016.3
20260504040144 46 284 0.0 0.0 0.00 0.00 0.00 70 1016.1
20260504035640 46 284 0.0 0.0 0.00 0.00 0.00 68 1016.3
20260504035137 47 284 0.0 0.0 0.00 0.00 0.00 66 1016.4